[[{"header":{"parameterUnit":"m.s-1","parameterCategory":1,"la1":30.2991,"la2":30.254,"lo1":-89.0895,"lo2":-89.0444,"dy":0.0017,"dx":0.0017,"nx":28,"ny":28,"refTime":"2023-07-27T21:00:00:Z","depth":0,"parameterNumber":2,"parameterNumberName":"U-component_of_WINDS"},"data":[0,0,0,0,0,0,0,0,0,0,0,0,0,0,0,0,0,0,0,0,0,0,0,0,0,0,0,0,0,0,0,0,0,0,0,0,0,0,0,0,0,0,0,0,0,0,0,0,0,0,0,0,0,0,0,0,0,0,0.8691,0.8691,0,0.8652,0.8651,0.8651,0.8568,0.8566,0.8565,0.8563,0.8524,0.8525,0.8525,0,0,0,0,0,0,0,0,0,0,0,0,0,0.8696,0.8697,0.8691,0.8691,0.869,0.8652,0.8651,0.8651,0.8568,0.8566,0.8564,0.8562,0.8524,0.8525,0.8526,0,0,0,0,0,0,0,0,0,0,0,0,0,0.8679,0.8697,0.8691,0.8645,0.864,0.8652,0.8651,0.865,0.8569,0.8566,0.8564,0.8561,0.8524,0.8525,0.8526,0.858,0,0,0.8528,0.8528,0,0,0,0,0,0,0,0,0.868,0.8679,0.8652,0.8648,0.8643,0.8612,0.8639,0.8627,0.8569,0.8596,0.8563,0.856,0.8556,0.8554,0.8552,0.8579,0.8577,0.8528,0.8529,0.8529,0.8529,0,0,0,0,0,0,0,0.8682,0.868,0.8676,0.8652,0.8646,0.8626,0.8621,0.8636,0.859,0.8593,0.8587,0.8584,0.8553,0.8551,0.855,0.8576,0.8528,0.8529,0.8529,0.8529,0.8644,0.8647,0,0,0,0,0,0,0.8689,0.8682,0.8677,0.8674,0.8656,0.8628,0.8622,0.8625,0.859,0.8582,0.8586,0.858,0.8551,0.855,0.8549,0.8609,0.8529,0.853,0.853,0.8642,0.8645,0.8648,0,0,0,0,0,0,0.869,0.869,0.8678,0.8676,0.8673,0.863,0.8634,0.8625,0.8623,0.8584,0.8576,0.8593,0.8549,0.8548,0.8573,0.8607,0.853,0.8531,0.8639,0.8643,0.8646,0.8732,0,0,0,0,0,0,0.869,0.869,0.8711,0.8678,0.8674,0.8703,0.8636,0.8626,0.8625,0.8617,0.8588,0.8581,0.8547,0.8572,0.8573,0.8607,0.8531,0.8635,0.8641,0.8645,0.8726,0.8739,0.8749,0,0,0,0,0,0.8691,0.8737,0.8712,0.8712,0.8698,0.8705,0.8703,0.8662,0.8628,0.8648,0.8622,0.8582,0.8603,0.8575,0.8576,0.861,0.8633,0.8639,0.8645,0.8721,0.8736,0.8749,0,0,0,0,0,0,0.8776,0.8732,0.8704,0.8741,0.8727,0.8691,0.8715,0.868,0.8677,0.8669,0.8619,0.8613,0.8645,0.863,0.86,0.8661,0.8612,0.8618,0.8669,0.8683,0.8695,0.8697,0.8532,0,0,0,0,0,0.8799,0.8808,0.8769,0.8806,0.88,0.8759,0.8761,0.873,0.8715,0.8709,0.8685,0.8672,0.8675,0.8678,0.8679,0.8724,0.8716,0.8747,0.8759,0.8769,0.8775,0.8796,0.8809,0.8667,0.8667,0.8667,0,0,0.8847,0.8824,0.8833,0.8822,0.8808,0.8819,0.8755,0.8769,0.8776,0.8711,0.8733,0.8715,0.8697,0.8731,0.8746,0.872,0.8812,0.8776,0.8784,0.8785,0.8803,0.8817,0.8829,0.8671,0.867,0.8669,0,0,0.894,0.8924,0.8951,0.8938,0.8918,0.889,0.8897,0.8866,0.8851,0.8872,0.8823,0.8831,0.8838,0.8827,0.8822,0.8909,0.8871,0.8911,0.8971,0.8992,0.9003,0.9013,0.9043,0.9055,0.8917,0.8917,0.8917,0,0.9002,0.9015,0.897,0.8987,0.8983,0.8924,0.8951,0.8941,0.8923,0.8921,0.8893,0.89,0.8883,0.8914,0.8935,0.8933,0.8939,0.8914,0.9005,0.9015,0.9023,0.9051,0.9063,0.8922,0.8921,0.8921,0.892,0,0.9093,0.9103,0.9128,0.911,0.9109,0.9132,0.909,0.9094,0.9064,0.9039,0.9061,0.9039,0.9034,0.9039,0.901,0.9065,0.905,0.9014,0.8964,0.9042,0.9068,0.9078,0.8929,0.8927,0.8926,0.8925,0,0,0.9238,0.9194,0.9204,0.9195,0.9167,0.9174,0.9193,0.9188,0.9192,0.9181,0.9196,0.9203,0.9169,0.9164,0.9133,0.9152,0.9221,0.9113,0.9112,0.9133,0.9279,0.9306,0.9319,0.9196,0.9198,0.9199,0.928,0,0.9324,0.9354,0.9313,0.9352,0.9361,0.9304,0.932,0.9305,0.9283,0.9286,0.9261,0.9267,0.9222,0.9219,0.9235,0.9209,0.9249,0.9203,0.9209,0.9209,0.9214,0.9332,0.9361,0.9438,0.929,0.9292,0.9293,0,0.9428,0.942,0.946,0.9429,0.9431,0.9447,0.9437,0.9442,0.9423,0.9405,0.9399,0.9362,0.9378,0.933,0.9351,0.9321,0.9321,0.9309,0.931,0.9309,0.9256,0.9333,0.9462,0.9474,0.9309,0.9307,0.9306,0,0.9529,0.9529,0.9552,0.9546,0.9511,0.9523,0.9509,0.9488,0.9486,0.9479,0.9477,0.9472,0.9469,0.9466,0.9428,0.9396,0.9454,0.9403,0.9439,0.944,0.9454,0.9453,0.9584,0.9455,0.9455,0.9455,0.9455,0,0.9628,0.9655,0.9597,0.9612,0.9639,0.9592,0.9621,0.9601,0.9583,0.9592,0.9543,0.9553,0.9502,0.9507,0.9478,0.95,0.9499,0.9485,0.9476,0.9489,0.949,0.9488,0.9481,0.9458,0.9457,0.9457,0.9456,0,0.9746,0.9709,0.973,0.9694,0.9686,0.9708,0.9677,0.9688,0.9662,0.9675,0.9675,0.9634,0.9636,0.9598,0.9594,0.9574,0.9609,0.9592,0.9615,0.9609,0.9648,0.9644,0.978,0.9795,0.9659,0.966,0.9661,0,0.9812,0.983,0.9796,0.9798,0.9786,0.9791,0.9789,0.9744,0.9744,0.9723,0.9738,0.9736,0.9732,0.9739,0.9709,0.9705,0.9686,0.9734,0.9686,0.9697,0.9686,0.9685,0.9686,0.9745,0.9746,0.9748,0.9749,0,0.9932,0.9912,0.9911,0.9903,0.9902,0.9894,0.9883,0.9888,0.9838,0.984,0.9842,0.9839,0.9834,0.9832,0.9822,0.9808,0.977,0.9764,0.9772,0.9785,0.9797,0.979,0.9642,0.9761,0.976,0.9759,0.9759,0.9758,1.0025,1.0038,1.0016,1.0016,1.0002,0.9993,1.0001,0.9976,0.9976,0.9967,0.9941,0.9947,0.9927,0.9909,0.9898,0.9902,0.9878,0.989,0.9893,0.9897,0.9903,0.9797,0.99,0.99,0.9899,0.9899,0.9899,0,1.0142,1.0124,1.0124,1.011,1.011,1.0073,1.0059,1.0061,1.0067,1.0051,1.0048,1.0049,1.0048,1.0017,1.0012,1.0021,1.0003,1.0021,1.0019,1.0016,0.9925,0.9918,1.0035,1.0035,1.0035,1.0035,1.0035,1.0035,1.0202,1.0223,1.02,1.0213,1.0195,1.02,1.0195,1.0185,1.0172,1.0176,1.0174,1.0154,1.0132,1.0124,1.0121,1.0112,1.0112,1.0135,1.012,1.0036,1.0023,1.001,1.0003,1.0136,1.0136,1.0211,1.0211,1.0212]},{"header":{"parameterUnit":"m.s-1","parameterCategory":1,"la1":30.2991,"la2":30.254,"lo1":-89.0895,"lo2":-89.0444,"dy":0.0017,"dx":0.0017,"nx":28,"ny":28,"refTime":"2023-07-27T21:00:00:Z","depth":0,"parameterNumber":3,"parameterNumberName":"V-component_of_WINDS"},"data":[0,0,0,0,0,0,0,0,0,0,0,0,0,0,0,0,0,0,0,0,0,0,0,0,0,0,0,0,0,0,0,0,0,0,0,0,0,0,0,0,0,0,0,0,0,0,0,0,0,0,0,0,0,0,0,0,0,0,-0.4666,-0.4666,0,-0.4674,-0.4674,-0.4674,-0.4693,-0.4693,-0.4694,-0.4694,-0.4701,-0.4701,-0.47,0,0,0,0,0,0,0,0,0,0,0,0,0,-0.4669,-0.4669,-0.4666,-0.4666,-0.4667,-0.4674,-0.4674,-0.4674,-0.4693,-0.4694,-0.4694,-0.4694,-0.4701,-0.4701,-0.47,0,0,0,0,0,0,0,0,0,0,0,0,0,-0.4671,-0.4669,-0.4666,-0.4677,-0.4678,-0.4674,-0.4674,-0.4674,-0.4693,-0.4694,-0.4694,-0.4695,-0.4701,-0.4701,-0.47,-0.4686,0,0,-0.4699,-0.4699,0,0,0,0,0,0,0,0,-0.4671,-0.4671,-0.4675,-0.4676,-0.4677,-0.4683,-0.4677,-0.4678,-0.4693,-0.4687,-0.4694,-0.4695,-0.4694,-0.4695,-0.4695,-0.4686,-0.4686,-0.4699,-0.4699,-0.4699,-0.4699,0,0,0,0,0,0,0,-0.4671,-0.4671,-0.4669,-0.4675,-0.4677,-0.4682,-0.4682,-0.4677,-0.4687,-0.4688,-0.4689,-0.469,-0.4695,-0.4695,-0.4695,-0.4687,-0.4699,-0.4699,-0.4699,-0.4699,-0.4668,-0.4667,0,0,0,0,0,0,-0.4669,-0.4671,-0.4669,-0.4669,-0.4676,-0.4681,-0.4682,-0.4681,-0.4687,-0.4689,-0.4689,-0.4691,-0.4695,-0.4695,-0.4695,-0.4679,-0.4699,-0.4699,-0.4699,-0.4669,-0.4668,-0.4667,0,0,0,0,0,0,-0.4669,-0.4669,-0.4669,-0.4671,-0.4671,-0.468,-0.4679,-0.468,-0.468,-0.4688,-0.469,-0.4687,-0.4696,-0.4696,-0.4688,-0.468,-0.4699,-0.4698,-0.4669,-0.4668,-0.4667,-0.4646,0,0,0,0,0,0,-0.4669,-0.4669,-0.4663,-0.467,-0.4671,-0.4662,-0.4678,-0.468,-0.468,-0.4682,-0.4687,-0.4688,-0.4696,-0.4689,-0.4688,-0.4679,-0.4698,-0.467,-0.4669,-0.4668,-0.4648,-0.4645,-0.4642,0,0,0,0,0,-0.4669,-0.4657,-0.4663,-0.4663,-0.4664,-0.4661,-0.4661,-0.467,-0.4679,-0.4673,-0.4679,-0.4688,-0.4681,-0.4688,-0.4687,-0.4678,-0.4671,-0.4669,-0.4668,-0.4649,-0.4645,-0.4642,0,0,0,0,0,0,-0.4648,-0.4658,-0.4665,-0.4654,-0.4657,-0.4664,-0.4657,-0.4666,-0.4666,-0.4668,-0.4679,-0.468,-0.4671,-0.4674,-0.4682,-0.4665,-0.4677,-0.4676,-0.4663,-0.466,-0.4657,-0.4656,-0.4698,0,0,0,0,0,-0.4642,-0.4639,-0.4648,-0.4637,-0.4638,-0.4648,-0.4647,-0.4654,-0.4657,-0.4658,-0.4663,-0.4665,-0.4664,-0.4662,-0.4661,-0.4649,-0.4651,-0.4643,-0.464,-0.4638,-0.4636,-0.463,-0.4627,-0.4662,-0.4663,-0.4663,0,0,-0.4629,-0.4634,-0.4631,-0.4633,-0.4636,-0.4632,-0.4648,-0.4644,-0.4641,-0.4657,-0.4651,-0.4655,-0.4658,-0.4649,-0.4645,-0.4651,-0.4627,-0.4636,-0.4634,-0.4633,-0.4629,-0.4625,-0.4622,-0.4662,-0.4662,-0.4662,0,0,-0.4604,-0.4608,-0.46,-0.4603,-0.4607,-0.4614,-0.4612,-0.4619,-0.4622,-0.4616,-0.4628,-0.4626,-0.4623,-0.4625,-0.4626,-0.4604,-0.4612,-0.4603,-0.4588,-0.4583,-0.458,-0.4577,-0.457,-0.4567,-0.4602,-0.4602,-0.4602,0,-0.4587,-0.4583,-0.4594,-0.459,-0.459,-0.4605,-0.4597,-0.46,-0.4603,-0.4603,-0.4611,-0.4608,-0.4611,-0.4603,-0.4598,-0.4598,-0.4596,-0.4602,-0.4579,-0.4577,-0.4575,-0.4568,-0.4565,-0.46,-0.4601,-0.4601,-0.4601,0,-0.4563,-0.4559,-0.4552,-0.4556,-0.4556,-0.455,-0.4561,-0.4559,-0.4567,-0.4573,-0.4567,-0.4572,-0.4573,-0.4572,-0.4579,-0.4565,-0.4568,-0.4577,-0.4589,-0.457,-0.4564,-0.4561,-0.4599,-0.4599,-0.46,-0.46,0,0,-0.4522,-0.4534,-0.4531,-0.4534,-0.4541,-0.4538,-0.4533,-0.4535,-0.4533,-0.4536,-0.4532,-0.453,-0.4539,-0.454,-0.4547,-0.4543,-0.4525,-0.4552,-0.4553,-0.4547,-0.4511,-0.4503,-0.45,-0.4532,-0.4531,-0.4531,-0.451,0,-0.4498,-0.449,-0.4501,-0.449,-0.4488,-0.4503,-0.4499,-0.4503,-0.4509,-0.4508,-0.4515,-0.4513,-0.4525,-0.4525,-0.4522,-0.4528,-0.4518,-0.453,-0.4528,-0.4528,-0.4526,-0.4496,-0.4488,-0.4468,-0.4508,-0.4507,-0.4507,0,-0.4469,-0.4471,-0.446,-0.4469,-0.4469,-0.4464,-0.4467,-0.4466,-0.4471,-0.4476,-0.4478,-0.4488,-0.4484,-0.4497,-0.4491,-0.4499,-0.45,-0.4503,-0.4502,-0.4502,-0.4515,-0.4494,-0.4462,-0.4458,-0.4503,-0.4503,-0.4503,0,-0.444,-0.444,-0.4434,-0.4436,-0.4446,-0.4443,-0.4447,-0.4453,-0.4454,-0.4456,-0.4457,-0.4459,-0.4459,-0.4461,-0.4471,-0.448,-0.4465,-0.4479,-0.4469,-0.4469,-0.4464,-0.4464,-0.443,-0.4465,-0.4465,-0.4465,-0.4465,0,-0.4412,-0.4404,-0.4422,-0.4418,-0.441,-0.4424,-0.4416,-0.4422,-0.4427,-0.4425,-0.4439,-0.4436,-0.4451,-0.445,-0.4458,-0.4453,-0.4453,-0.4457,-0.4459,-0.4455,-0.4455,-0.4455,-0.4456,-0.4465,-0.4465,-0.4465,-0.4465,0,-0.4378,-0.4389,-0.4383,-0.4394,-0.4397,-0.4391,-0.44,-0.4397,-0.4405,-0.4402,-0.4402,-0.4414,-0.4414,-0.4425,-0.4427,-0.4433,-0.4424,-0.4429,-0.4422,-0.4423,-0.4413,-0.4414,-0.4378,-0.4374,-0.4412,-0.4411,-0.4411,0,-0.4358,-0.4353,-0.4364,-0.4364,-0.4368,-0.4367,-0.4368,-0.4381,-0.4382,-0.4389,-0.4385,-0.4386,-0.4388,-0.4387,-0.4396,-0.4398,-0.4403,-0.4391,-0.4403,-0.44,-0.4403,-0.4403,-0.4402,-0.4387,-0.4387,-0.4387,-0.4386,0,-0.4323,-0.4329,-0.433,-0.4333,-0.4334,-0.4337,-0.4341,-0.434,-0.4355,-0.4355,-0.4356,-0.4357,-0.436,-0.4361,-0.4365,-0.437,-0.4381,-0.4382,-0.438,-0.4376,-0.4372,-0.4374,-0.4414,-0.4383,-0.4383,-0.4383,-0.4384,-0.4384,-0.4295,-0.4292,-0.4299,-0.43,-0.4305,-0.4309,-0.4307,-0.4315,-0.4316,-0.4319,-0.4328,-0.4327,-0.4334,-0.4341,-0.4345,-0.4345,-0.4351,-0.4348,-0.4347,-0.4346,-0.4344,-0.4373,-0.4345,-0.4346,-0.4346,-0.4346,-0.4346,0,-0.426,-0.4266,-0.4267,-0.4273,-0.4274,-0.4285,-0.429,-0.429,-0.429,-0.4296,-0.4297,-0.4299,-0.43,-0.431,-0.4313,-0.4311,-0.4316,-0.4312,-0.4312,-0.4313,-0.4338,-0.4339,-0.4308,-0.4308,-0.4308,-0.4308,-0.4308,-0.4308,-0.4242,-0.4237,-0.4244,-0.4242,-0.4248,-0.4248,-0.425,-0.4254,-0.4259,-0.426,-0.4262,-0.4269,-0.4276,-0.428,-0.4283,-0.4286,-0.4286,-0.4279,-0.4284,-0.4307,-0.4311,-0.4314,-0.4315,-0.428,-0.428,-0.4259,-0.4259,-0.4258]}]]